Retour au catalogue

NOAA 16 DEB

ActifSSO
NORAD 41285·DEBRIS·🇺🇸 United States

Lancé Sep 21, 2000 depuis Vandenberg Space Force Base

Loading…

Prochains Passages (prochaines 24 heures)

TLE

FraisSource: Space-Track

Époque: Sep 14, 2026, 09:59 UTC

1 41285U 00055GM  26257.41657207  .00002018  00000-0  82698-3 0  9991
2 41285  98.6569 323.4747 0050772 109.3461 251.3219 14.27545165554210

Suivez NOAA 16 DEB en temps réel avec AllMySat

Download on the App Store